Zurück zum Katalog

CZ-4 R/B

AktivSSO
NORAD 20791·ROCKET BODY·🇨🇳 China

Gestartet Sep 3, 1990 von Taiyuan Satellite Launch Center

Loading…

Nächste Überflüge (nächste 24 Stunden)

TLE

AktuellSource: Space-Track

Epoche: Sep 14, 2026, 09:45 UTC

1 20791U 90081D   26257.40692758 -.00000020  00000-0  17525-4 0  9997
2 20791  99.0431 219.0829 0052588 183.4275 329.0177 13.93059707831012

Verfolge CZ-4 R/B in Echtzeit mit AllMySat

Download on the App Store